Goshen, IN

1:26 AM EDT on June 26, 2017 (GMT -0400)
Goshen Municipal

Weather History for KGSH - May, 2013

Change the Weather History Date:

Saturday, May 18, 2013

  Actual Average Record
Temperature  
Mean Temperature 68 °F -  
Max Temperature 82 °F 73 °F 92 °F (1962)
Min Temperature 55 °F 50 °F 30 °F (1973)
Cooling Degree Days 3    
Growing Degree Days 18 (Base 50)    
Moisture  
Dew Point 50 °F    
Average Humidity 53    
Maximum Humidity 73    
Minimum Humidity 44    
Precipitation  
Precipitation 0.00 in - - ()
Sea Level Pressure  
Sea Level Pressure 30.04 in    
Wind  
Wind Speed 7 mph (ESE)    
Max Wind Speed 13 mph    
Max Gust Speed -    
Visibility 10 miles    
Events      
Averages and records for this station are not official NWS values.
T = Trace of Precipitation, MM = Missing Value Source: NWS Daily Summary

Daily Weather History Graph

Daily Weather History Graph

Search for Another Location

Airport or City:

Trip Planner

Search our weather history database for the weather conditions in past years. The results will help you decide how hot, cold, wet, or windy it might be!

Date:

Astronomy

May. 18, 2013 Rise Set
Actual Time 6:20 AM EDT 8:58 PM EDT
Civil Twilight 5:48 AM EDT 9:30 PM EDT
Nautical Twilight 5:09 AM EDT 10:11 PM EDT
Astronomical Twilight 4:23 AM EDT 10:56 PM EDT
Moon 1:56 PM EDT (5/18) 2:18 AM EDT (5/18)
Length of Visible Light 15h 41m
Length of Day
14h 37m
First Quarter, 55% of the Moon is Illuminated
May 18
First Quarter
May 25
Full
May 31
Last Quarter
Jun 8
New
Jun 16
First Quarter

Hourly Weather History & Observations

Time (EDT) Temp. Heat Index Dew Point Humidity Pressure Visibility Wind Dir Wind Speed Gust Speed Precip Events Conditions
1:53 AM 61.0 °F - 39.9 °F 46% 30.06 in 10.0 mi East 11.5 mph - N/A   Clear
2:53 AM 60.1 °F - 39.0 °F 46% 30.06 in 10.0 mi ESE 9.2 mph - N/A   Mostly Cloudy
3:53 AM 57.0 °F - 37.9 °F 49% 30.06 in 10.0 mi East 6.9 mph - N/A   Partly Cloudy
4:53 AM 55.9 °F - 39.0 °F 53% 30.07 in 10.0 mi East 4.6 mph - N/A   Mostly Cloudy
5:53 AM 57.0 °F - 41.0 °F 55% 30.08 in 10.0 mi East 3.5 mph - N/A   Overcast
6:53 AM 57.0 °F - 42.1 °F 57% 30.10 in 10.0 mi ENE 3.5 mph - N/A   Overcast
7:53 AM 57.9 °F - 43.0 °F 58% 30.11 in 10.0 mi East 5.8 mph - N/A   Overcast
8:53 AM 62.1 °F - 44.1 °F 52% 30.09 in 10.0 mi SE 9.2 mph - N/A   Overcast
9:53 AM 64.0 °F - 46.9 °F 54% 30.09 in 10.0 mi Calm Calm - N/A   Overcast
10:53 AM 70.0 °F - 51.1 °F 51% 30.08 in 10.0 mi Calm Calm - N/A   Overcast
11:53 AM 75.0 °F - 55.9 °F 51% 30.07 in 10.0 mi Calm Calm - N/A   Scattered Clouds
12:53 PM 77.0 °F - 55.9 °F 48% 30.06 in 10.0 mi Calm Calm - N/A   Partly Cloudy
1:53 PM 79.0 °F - 59.0 °F 50% 30.04 in 10.0 mi Variable 6.9 mph - N/A   Overcast
3:53 PM 81.0 °F 81.0 °F 57.0 °F 44% 30.01 in 10.0 mi SW 8.1 mph - N/A   Partly Cloudy
4:53 PM 80.1 °F 80.4 °F 57.0 °F 45% 30.00 in 10.0 mi SSE 12.7 mph - N/A   Partly Cloudy
5:53 PM 78.1 °F - 57.0 °F 48% 30.00 in 10.0 mi South 8.1 mph - N/A   Overcast
6:53 PM 78.1 °F - 57.0 °F 48% 30.00 in 10.0 mi SSE 6.9 mph - N/A   Overcast
7:53 PM 78.1 °F - 57.0 °F 48% 29.99 in 10.0 mi SE 5.8 mph - N/A   Mostly Cloudy
8:53 PM 71.1 °F - 57.0 °F 61% 29.99 in 10.0 mi ESE 4.6 mph - N/A   Clear
9:53 PM 68.0 °F - 57.0 °F 68% 29.99 in 10.0 mi East 4.6 mph - N/A   Clear
10:53 PM 69.1 °F - 55.9 °F 63% 30.00 in 10.0 mi ESE 4.6 mph - N/A   Clear
11:53 PM 64.9 °F - 55.9 °F 73% 30.01 in 10.0 mi East 9.2 mph - N/A   Clear